When you browse on this site, cookies collect data to enhance your experience and personalize the content and advertising you see.
Visit our Privacy Policy to learn more. By continuing to use the site, you agree to this use of cookies and data.

Meteo orario Tymoshivka

Oggi, 13 Luglio, Lunedi

Tempo Temperatura Precipitazioni Vento Pressione Umidità
00:00 +21°C° 0 mm 4 m/s 749 mm Hg 76%
01:00 +20°C° 0 mm 4 m/s 749 mm Hg 78%
02:00 +20°C° 0 mm 5 m/s 749 mm Hg 80%
03:00 +20°C° 0 mm 5 m/s 749 mm Hg 84%
04:00 +19°C° 0 mm 6 m/s 748 mm Hg 87%
05:00 +18°C° 0 mm 7 m/s 748 mm Hg 90%
06:00 +18°C° 0 mm 7 m/s 748 mm Hg 87%
07:00 +20°C° 0 mm 7 m/s 748 mm Hg 84%
08:00 +20°C° 0 mm 6 m/s 748 mm Hg 82%
09:00 +20°C° 0 mm 7 m/s 748 mm Hg 82%
10:00 +18°C° 0 mm 7 m/s 748 mm Hg 82%
11:00 +17°C° 0 mm 7 m/s 748 mm Hg 83%
12:00 +17°C° 0.2 mm 8 m/s 748 mm Hg 83%
13:00 +17°C° 0.2 mm 8 m/s 748 mm Hg 82%
14:00 +17°C° 0.2 mm 8 m/s 749 mm Hg 82%
15:00 +16°C° 0.1 mm 8 m/s 748 mm Hg 83%
16:00 +16°C° 0.1 mm 8 m/s 748 mm Hg 84%
17:00 +15°C° 0.1 mm 8 m/s 748 mm Hg 86%
18:00 +15°C° 0 mm 8 m/s 748 mm Hg 86%
19:00 +15°C° 0 mm 8 m/s 748 mm Hg 86%
20:00 +14°C° 0 mm 7 m/s 748 mm Hg 86%
21:00 +14°C° 0 mm 7 m/s 748 mm Hg 86%
22:00 +14°C° 0 mm 7 m/s 748 mm Hg 87%
23:00 +14°C° 0 mm 7 m/s 748 mm Hg 88%

Domani, 14 Luglio, Martedi

Tempo Temperatura Precipitazioni Vento Pressione Umidità
00:00 +14°C° 0.1 mm 7 m/s 747 mm Hg 88%
01:00 +14°C° 0.1 mm 7 m/s 747 mm Hg 89%
02:00 +14°C° 0.1 mm 6 m/s 747 mm Hg 89%
03:00 +14°C° 0.6 mm 6 m/s 747 mm Hg 91%
04:00 +12°C° 0.6 mm 7 m/s 747 mm Hg 92%
05:00 +12°C° 0.6 mm 7 m/s 746 mm Hg 94%
06:00 +12°C° 1 mm 7 m/s 747 mm Hg 93%
07:00 +12°C° 1 mm 7 m/s 747 mm Hg 93%
08:00 +14°C° 1 mm 7 m/s 747 mm Hg 93%
09:00 +14°C° 0.9 mm 7 m/s 747 mm Hg 93%
10:00 +14°C° 0.9 mm 7 m/s 747 mm Hg 92%
11:00 +14°C° 0.9 mm 7 m/s 747 mm Hg 92%
12:00 +14°C° 0.7 mm 7 m/s 747 mm Hg 91%
13:00 +14°C° 0.7 mm 7 m/s 747 mm Hg 91%
14:00 +15°C° 0.7 mm 7 m/s 747 mm Hg 90%
15:00 +14°C° 0.7 mm 7 m/s 747 mm Hg 91%
16:00 +13°C° 0.7 mm 8 m/s 747 mm Hg 91%
17:00 +13°C° 0.7 mm 8 m/s 747 mm Hg 92%
18:00 +13°C° 1.3 mm 8 m/s 747 mm Hg 92%
19:00 +13°C° 1.3 mm 8 m/s 748 mm Hg 93%
20:00 +12°C° 1.3 mm 8 m/s 748 mm Hg 93%
21:00 +13°C° 1.1 mm 9 m/s 748 mm Hg 93%
22:00 +13°C° 1.1 mm 9 m/s 748 mm Hg 93%
23:00 +13°C° 1.1 mm 9 m/s 748 mm Hg 93%

Dopodomani, 15 Luglio, Mercoledi

Tempo Temperatura Precipitazioni Vento Pressione Umidità
00:00 +13°C° 0.6 mm 8 m/s 748 mm Hg 91%
01:00 +14°C° 0.6 mm 7 m/s 749 mm Hg 89%
02:00 +14°C° 0.6 mm 7 m/s 749 mm Hg 88%
03:00 +14°C° 0 mm 7 m/s 749 mm Hg 88%
04:00 +14°C° 0 mm 6 m/s 749 mm Hg 88%
05:00 +14°C° 0 mm 6 m/s 749 mm Hg 88%
06:00 +15°C° 0 mm 6 m/s 750 mm Hg 83%
07:00 +16°C° 0 mm 6 m/s 750 mm Hg 78%
08:00 +19°C° 0 mm 6 m/s 750 mm Hg 74%
09:00 +20°C° 0 mm 6 m/s 750 mm Hg 67%
10:00 +21°C° 0 mm 6 m/s 750 mm Hg 61%
11:00 +22°C° 0 mm 6 m/s 751 mm Hg 54%
12:00 +23°C° 0 mm 6 m/s 751 mm Hg 54%
13:00 +23°C° 0 mm 6 m/s 751 mm Hg 53%
14:00 +24°C° 0 mm 6 m/s 751 mm Hg 52%
15:00 +23°C° 0 mm 6 m/s 751 mm Hg 54%
16:00 +23°C° 0 mm 5 m/s 751 mm Hg 56%
17:00 +23°C° 0 mm 5 m/s 751 mm Hg 58%
18:00 +21°C° 0 mm 4 m/s 751 mm Hg 62%
19:00 +19°C° 0 mm 3 m/s 751 mm Hg 66%
20:00 +18°C° 0 mm 2 m/s 752 mm Hg 70%
21:00 +17°C° 0 mm 2 m/s 752 mm Hg 71%
22:00 +16°C° 0 mm 2 m/s 752 mm Hg 73%
23:00 +16°C° 0 mm 1 m/s 752 mm Hg 75%

16 Luglio, Giovedi

Tempo Temperatura Precipitazioni Vento Pressione Umidità
00:00 +16°C° 0 mm 1 m/s 752 mm Hg 77%
01:00 +15°C° 0 mm 1 m/s 752 mm Hg 79%
02:00 +15°C° 0 mm 1 m/s 752 mm Hg 82%
03:00 +15°C° 0 mm 1 m/s 752 mm Hg 82%
04:00 +15°C° 0 mm 1 m/s 752 mm Hg 82%
05:00 +15°C° 0 mm 2 m/s 752 mm Hg 82%
06:00 +17°C° 0 mm 2 m/s 752 mm Hg 76%
07:00 +19°C° 0 mm 2 m/s 752 mm Hg 69%
08:00 +21°C° 0 mm 2 m/s 752 mm Hg 63%
09:00 +23°C° 0 mm 2 m/s 752 mm Hg 59%
10:00 +24°C° 0 mm 2 m/s 752 mm Hg 56%
11:00 +25°C° 0 mm 2 m/s 752 mm Hg 52%
12:00 +25°C° 0 mm 2 m/s 752 mm Hg 52%
13:00 +25°C° 0 mm 2 m/s 752 mm Hg 51%
14:00 +25°C° 0 mm 2 m/s 751 mm Hg 51%
15:00 +25°C° 0 mm 2 m/s 751 mm Hg 53%
16:00 +25°C° 0 mm 2 m/s 751 mm Hg 54%
17:00 +25°C° 0 mm 1 m/s 751 mm Hg 56%
18:00 +24°C° 0 mm 1 m/s 751 mm Hg 61%
19:00 +22°C° 0 mm 1 m/s 751 mm Hg 67%
20:00 +20°C° 0 mm 1 m/s 751 mm Hg 73%
21:00 +20°C° 0 mm 1 m/s 751 mm Hg 75%
22:00 +19°C° 0 mm 1 m/s 751 mm Hg 78%
23:00 +19°C° 0 mm 1 m/s 751 mm Hg 80%

17 Luglio, Venerdi

Tempo Temperatura Precipitazioni Vento Pressione Umidità
00:00 +18°C° 0 mm 1 m/s 751 mm Hg 80%
01:00 +18°C° 0 mm 1 m/s 751 mm Hg 81%
02:00 +18°C° 0 mm 1 m/s 751 mm Hg 81%
03:00 +18°C° 0 mm 1 m/s 751 mm Hg 81%
04:00 +18°C° 0 mm 1 m/s 751 mm Hg 81%
05:00 +15°C° 0 mm 0 m/s 751 mm Hg 81%
06:00 +17°C° 0 mm 0 m/s 751 mm Hg 75%
07:00 +19°C° 0 mm 0 m/s 752 mm Hg 70%
08:00 +21°C° 0 mm 0 m/s 752 mm Hg 64%
09:00 +22°C° 0 mm 0 m/s 752 mm Hg 58%
10:00 +25°C° 0 mm 1 m/s 752 mm Hg 53%
11:00 +27°C° 0 mm 1 m/s 752 mm Hg 47%
12:00 +27°C° 0 mm 1 m/s 752 mm Hg 47%
13:00 +27°C° 0 mm 1 m/s 752 mm Hg 47%
14:00 +27°C° 0 mm 2 m/s 751 mm Hg 47%
15:00 +27°C° 0 mm 1 m/s 751 mm Hg 49%
16:00 +27°C° 0 mm 1 m/s 751 mm Hg 51%
17:00 +27°C° 0 mm 1 m/s 751 mm Hg 53%
18:00 +25°C° 0 mm 1 m/s 751 mm Hg 58%
19:00 +24°C° 0 mm 1 m/s 752 mm Hg 63%
20:00 +22°C° 0 mm 1 m/s 752 mm Hg 68%
21:00 +21°C° 0 mm 1 m/s 752 mm Hg 70%
22:00 +19°C° 0 mm 2 m/s 752 mm Hg 73%
23:00 +19°C° 0 mm 2 m/s 752 mm Hg 75%

18 Luglio, Sabato

Tempo Temperatura Precipitazioni Vento Pressione Umidità
00:00 +18°C° 0 mm 2 m/s 752 mm Hg 75%
01:00 +18°C° 0 mm 2 m/s 752 mm Hg 76%
02:00 +18°C° 0 mm 1 m/s 752 mm Hg 76%
03:00 +19°C° 0 mm 1 m/s 752 mm Hg 77%
04:00 +19°C° 0 mm 1 m/s 752 mm Hg 77%
05:00 +19°C° 0 mm 1 m/s 752 mm Hg 77%
06:00 +20°C° 0 mm 1 m/s 753 mm Hg 73%
07:00 +22°C° 0 mm 1 m/s 753 mm Hg 69%
08:00 +23°C° 0 mm 1 m/s 753 mm Hg 64%
09:00 +24°C° 0 mm 1 m/s 753 mm Hg 64%
10:00 +24°C° 0 mm 1 m/s 752 mm Hg 64%
11:00 +24°C° 0 mm 1 m/s 752 mm Hg 64%
12:00 +26°C° 0.1 mm 1 m/s 752 mm Hg 60%
13:00 +27°C° 0.1 mm 1 m/s 752 mm Hg 55%
14:00 +28°C° 0.1 mm 1 m/s 752 mm Hg 51%
15:00 +27°C° 0.4 mm 2 m/s 752 mm Hg 55%
16:00 +27°C° 0.4 mm 2 m/s 751 mm Hg 58%
17:00 +26°C° 0.4 mm 2 m/s 751 mm Hg 61%
18:00 +24°C° 0.5 mm 2 m/s 751 mm Hg 70%
19:00 +21°C° 0.5 mm 2 m/s 751 mm Hg 78%
20:00 +20°C° 0.5 mm 3 m/s 751 mm Hg 87%
21:00 +19°C° 0.5 mm 3 m/s 751 mm Hg 88%
22:00 +19°C° 0.5 mm 2 m/s 751 mm Hg 89%
23:00 +18°C° 0.5 mm 2 m/s 751 mm Hg 90%
Mostrare altro